Lubbock, TX

9:35 PM CDT on May 29, 2017 (GMT -0500)
Lubbock International

Weather History for KLBB - January, 2014

Change the Weather History Date:

Wednesday, January 22, 2014

  Actual Average Record
Temperature  
Mean Temperature 35 °F 41 °F  
Max Temperature 50 °F 55 °F 79 °F (1943)
Min Temperature 20 °F 27 °F -6 °F (1957)
Degree Days  
Heating Degree Days 30 24  
Month to date heating degree days 524 552  
Since 1 July heating degree days 1981 1950  
Cooling Degree Days 0 0  
Month to date cooling degree days 0 0  
Year to date cooling degree days 0 0  
Moisture  
Dew Point 15 °F    
Average Humidity 44    
Maximum Humidity 62    
Minimum Humidity 26    
Precipitation  
Precipitation 0.00 in 0.02 in 0.35 in (1980)
Month to date precipitation 0.00 0.42  
Year to date precipitation 0.00 0.42  
Snow  
Snow 0.00 in 0.10 in 3.50 in (1980)
Month to date snowfall 0.0 1.8  
Since 1 July snowfall 2.4 5.0  
Snow Depth 0.00 in    
Sea Level Pressure  
Sea Level Pressure 30.04 in    
Wind  
Wind Speed 12 mph (NE)    
Max Wind Speed 23 mph    
Max Gust Speed 29 mph    
Visibility 10 miles    
Events      
T = Trace of Precipitation, MM = Missing Value Source: NWS Daily Summary

Daily Weather History Graph

Daily Weather History Graph

Search for Another Location

Airport or City:

Trip Planner

Search our weather history database for the weather conditions in past years. The results will help you decide how hot, cold, wet, or windy it might be!

Date:

Astronomy

Jan. 22, 2014 Rise Set
Actual Time 7:49 AM CST 6:08 PM CST
Civil Twilight 7:22 AM CST 6:35 PM CST
Nautical Twilight 6:52 AM CST 7:05 PM CST
Astronomical Twilight 6:22 AM CST 7:35 PM CST
Moon No Moon Rise 11:11 AM CST (1/22)
Length of Visible Light 11h 12m
Length of Day
10h 19m
Waning Gibbous, 65% of the Moon is Illuminated
Jan 22
Waning Gibbous
Jan 23
Last Quarter
Jan 30
New
Feb 6
First Quarter
Feb 14
Full

Hourly Weather History & Observations

Time (CST) Temp. Windchill Dew Point Humidity Pressure Visibility Wind Dir Wind Speed Gust Speed Precip Events Conditions
12:53 AM 34.0 °F 26.0 °F 12.0 °F 40% 30.06 in 10.0 mi WSW 10.4 mph - N/A   Partly Cloudy
1:53 AM 35.1 °F 28.6 °F 12.9 °F 40% 30.04 in 10.0 mi WSW 8.1 mph - N/A   Clear
2:53 AM 30.0 °F 21.7 °F 12.9 °F 49% 30.03 in 10.0 mi WSW 9.2 mph - N/A   Clear
3:53 AM 28.9 °F 21.9 °F 12.9 °F 51% 30.02 in 10.0 mi WSW 6.9 mph - N/A   Clear
4:53 AM 27.0 °F 17.3 °F 12.9 °F 56% 30.01 in 10.0 mi WSW 10.4 mph - N/A   Partly Cloudy
5:53 AM 24.1 °F 15.2 °F 12.0 °F 60% 30.01 in 10.0 mi West 8.1 mph - N/A   Partly Cloudy
6:53 AM 23.0 °F 14.7 °F 10.9 °F 60% 30.03 in 10.0 mi West 6.9 mph - N/A   Mostly Cloudy
7:53 AM 21.9 °F 13.4 °F 10.0 °F 60% 30.05 in 10.0 mi NW 6.9 mph - N/A   Mostly Cloudy
8:53 AM 26.1 °F 16.2 °F 10.9 °F 53% 30.05 in 10.0 mi NNW 10.4 mph - N/A   Mostly Cloudy
9:53 AM 37.0 °F 29.3 °F 14.0 °F 39% 30.06 in 10.0 mi NE 11.5 mph - N/A   Mostly Cloudy
10:53 AM 46.9 °F - 16.0 °F 29% 30.05 in 10.0 mi ENE 15.0 mph 26.5 mph N/A   Mostly Cloudy
11:53 AM 46.9 °F - 15.1 °F 28% 30.03 in 10.0 mi ENE 20.7 mph 26.5 mph N/A   Overcast
12:53 PM 48.0 °F - 15.1 °F 27% 30.01 in 10.0 mi ENE 17.3 mph - N/A   Overcast
1:53 PM 46.9 °F - 16.0 °F 29% 29.98 in 10.0 mi East 17.3 mph - N/A   Overcast
2:53 PM 48.0 °F - 15.1 °F 27% 29.99 in 10.0 mi East 16.1 mph - N/A   Overcast
3:53 PM 48.0 °F - 16.0 °F 28% 29.98 in 10.0 mi ENE 12.7 mph - N/A   Overcast
4:53 PM 46.0 °F 40.2 °F 17.1 °F 31% 29.99 in 10.0 mi ENE 12.7 mph - N/A   Overcast
5:53 PM 44.1 °F 38.1 °F 17.1 °F 34% 30.03 in 10.0 mi ENE 11.5 mph - N/A   Overcast
6:53 PM 41.0 °F 34.3 °F 18.0 °F 40% 30.06 in 10.0 mi ENE 11.5 mph - N/A   Overcast
7:53 PM 39.0 °F 31.8 °F 18.0 °F 43% 30.09 in 10.0 mi NE 11.5 mph - N/A   Overcast
8:53 PM 39.0 °F 32.3 °F 19.9 °F 46% 30.09 in 10.0 mi East 10.4 mph - N/A   Overcast
9:53 PM 37.0 °F 29.8 °F 19.0 °F 48% 30.11 in 10.0 mi NE 10.4 mph - N/A   Overcast
10:53 PM 36.0 °F 27.5 °F 19.9 °F 52% 30.11 in 10.0 mi ENE 12.7 mph - N/A   Overcast
11:53 PM 36.0 °F 26.0 °F 19.9 °F 52% 30.12 in 10.0 mi ENE 17.3 mph - N/A   Overcast